FW7342 Weather Reports


time (UTC)temp
C
wind
direction
speed
KPH
gust
KPH
rain 1hr
cm
rain 24hr
cm
rain mn
cm
humidity
%
barometer
mb
20260505225058 11 0 1.6 3.2 0.00 0.03 0.00 87 1018.9
20260505224017 11 0 1.6 3.2 0.00 0.03 0.00 87 1019.1
20260505223017 11 0 1.6 3.2 0.00 0.03 0.00 87 1019.0
20260505222017 11 0 3.2 4.8 0.00 0.03 0.00 87 1019.1
20260505221017 11 0 1.6 4.8 0.00 0.03 0.00 87 1019.1
20260505220017 11 0 3.2 4.8 0.00 0.03 0.03 86 1019.1
20260505215057 11 0 1.6 3.2 0.00 0.03 0.03 86 1019.2
20260505214017 11 0 3.2 4.8 0.00 0.03 0.03 86 1019.4
20260505213017 11 0 1.6 3.2 0.00 0.03 0.03 86 1019.4
20260505212016 11 0 3.2 4.8 0.00 0.03 0.03 86 1019.2
20260505211017 11 0 1.6 4.8 0.00 0.03 0.03 86 1019.1
20260505210017 11 0 1.6 4.8 0.00 0.03 0.03 86 1018.7
20260505205016 11 0 3.2 3.2 0.00 0.03 0.03 86 1018.8
20260505204017 11 0 3.2 4.8 0.00 0.03 0.03 86 1018.9
20260505203037 11 0 1.6 4.8 0.00 0.03 0.03 85 1019.0
20260505202017 11 0 3.2 4.8 0.00 0.03 0.03 85 1019.0
20260505201016 12 0 1.6 4.8 0.00 0.03 0.03 85 1018.9
20260505200016 12 0 1.6 3.2 0.00 0.03 0.03 85 1018.9
20260505195016 12 0 1.6 4.8 0.00 0.03 0.03 85 1018.9
20260505194016 12 0 3.2 6.4 0.00 0.03 0.03 85 1019.0
20260505193037 12 0 3.2 4.8 0.00 0.03 0.03 85 1019.1
20260505192016 12 0 1.6 3.2 0.00 0.03 0.03 85 1019.1
20260505191017 12 0 1.6 3.2 0.00 0.05 0.03 84 1019.2
20260505190016 12 0 1.6 3.2 0.00 0.08 0.03 84 1018.9
20260505185016 12 0 1.6 4.8 0.00 0.10 0.03 84 1018.8
20260505184017 12 0 3.2 6.4 0.00 0.10 0.03 84 1018.6
20260505183016 12 0 1.6 3.2 0.00 0.10 0.03 84 1018.6
20260505182016 12 0 3.2 4.8 0.00 0.10 0.03 84 1018.3
20260505181016 12 0 3.2 4.8 0.00 0.10 0.03 83 1018.2
20260505180016 12 0 1.6 4.8 0.00 0.10 0.03 83 1018.0
20260505175017 12 0 1.6 4.8 0.00 0.10 0.03 82 1017.9
20260505174016 12 0 1.6 3.2 0.00 0.10 0.03 82 1017.8
20260505173016 12 0 1.6 4.8 0.00 0.10 0.03 81 1017.9
20260505172016 12 0 1.6 3.2 0.00 0.10 0.03 81 1017.6
20260505171016 13 0 1.6 4.8 0.00 0.10 0.03 81 1017.6
20260505170016 13 0 1.6 6.4 0.00 0.10 0.03 81 1017.4
20260505165016 13 0 3.2 6.4 0.00 0.10 0.03 80 1017.3
20260505164016 13 0.0 1.6 0.00 0.10 0.03 79 1017.1
20260505163016 13 0.0 1.6 0.00 0.10 0.03 79 1017.1
20260505162016 13 0 3.2 4.8 0.00 0.10 0.03 78 1016.9
20260505161038 14 0 1.6 3.2 0.00 0.10 0.03 77 1016.6
20260505153018 15 0 1.6 6.4 0.00 0.10 0.03 73 1016.3
20260505152016 15 0 3.2 6.4 0.00 0.10 0.03 72 1016.2
20260505151017 15 0 3.2 6.4 0.00 0.10 0.03 70 1016.3
20260505125037 19 0 6.4 16.1 0.00 0.10 0.03 57 1015.7
20260505124017 19 0 4.8 12.9 0.00 0.10 0.03 58 1015.6
20260505123017 18 0 6.4 16.1 0.00 0.10 0.03 57 1015.6
20260505122018 18 0 4.8 9.7 0.00 0.10 0.03 60 1015.6
20260505121018 18 0 4.8 14.5 0.00 0.10 0.03 61 1015.6
20260505120017 18 0 4.8 9.7 0.00 0.10 0.03 61 1015.4
20260505115017 18 0 4.8 12.9 0.00 0.10 0.03 61 1015.4
20260505114017 18 0 8.0 16.1 0.00 0.10 0.03 60 1015.6
20260505113018 18 0 6.4 17.7 0.00 0.10 0.03 63 1015.7
20260505112037 18 0 3.2 6.4 0.00 0.10 0.03 63 1015.9
20260505111017 17 0 3.2 6.4 0.00 0.10 0.03 65 1016.0
20260505102017 18 0 3.2 4.8 0.00 0.10 0.03 65 1016.4
20260505101037 18 0 4.8 9.7 0.00 0.10 0.03 65 1016.4
20260505100017 17 0 3.2 8.0 0.00 0.10 0.03 66 1016.5
20260505095016 17 0 3.2 9.7 0.00 0.10 0.03 70 1016.7
20260505094017 17 0 1.6 6.4 0.00 0.10 0.03 72 1016.6
20260505093016 17 0 3.2 9.7 0.00 0.10 0.03 73 1016.6
20260505092057 17 0 1.6 6.4 0.00 0.10 0.03 73 1016.6
20260505091016 16 135 1.6 9.7 0.00 0.10 0.03 81 1016.6
20260505090017 16 135 1.6 6.4 0.00 0.10 0.03 90 1016.6
20260505085016 15 113 1.6 4.8 0.00 0.10 0.03 92 1016.7
20260505084037 15 0.0 3.2 0.00 0.10 0.03 93 1016.6
20260505083016 13 180 1.6 6.4 0.00 0.10 0.03 94 1016.6
20260505082017 13 0.0 1.6 0.00 0.10 0.03 94 1016.6
20260505081016 13 0.0 3.2 0.00 0.10 0.03 94 1016.6
20260505080016 12 0.0 3.2 0.00 0.10 0.03 94 1016.6
20260505075016 12 0.0 1.6 0.00 0.10 0.03 94 1016.6
20260505074016 12 0 1.6 4.8 0.00 0.10 0.03 94 1016.6
20260505073036 12 0.0 3.2 0.00 0.10 0.03 94 1016.6
20260505072016 12 0.0 0.0 0.00 0.10 0.03 94 1016.4
20260505071016 11 0.0 0.0 0.00 0.10 0.03 94 1016.3
20260505070016 11 0.0 0.0 0.00 0.10 0.03 94 1016.2
20260505065016 11 0.0 1.6 0.00 0.13 0.03 94 1016.1
20260505064018 10 0.0 3.2 0.00 0.13 0.03 94 1016.0
20260505063016 10 0.0 0.0 0.00 0.23 0.03 94 1015.8
20260505062016 9 0.0 1.6 0.00 0.23 0.03 92 1015.6
20260505061016 9 0.0 1.6 0.00 0.25 0.03 91 1015.3
20260505060016 9 0.0 0.0 0.00 0.30 0.03 91 1015.3
20260505055016 9 0.0 0.0 0.00 0.30 0.03 91 1015.3
20260505054016 9 0.0 1.6 0.00 0.30 0.03 91 1015.5
20260505053017 9 0 1.6 4.8 0.00 0.30 0.03 91 1015.4
20260505052016 9 0.0 1.6 0.00 0.30 0.03 91 1015.3
20260505051016 9 0.0 3.2 0.00 0.30 0.03 91 1015.1
20260505041017 10 0.0 0.0 0.00 0.41 0.03 91 1014.5
20260505040016 10 0.0 0.0 0.03 0.43 0.03 91 1014.5
20260505035017 10 0.0 1.6 0.03 0.51 0.03 91 1014.4
20260505034018 10 0.0 1.6 0.03 0.56 0.03 91 1014.5
20260505033017 10 0.0 3.2 0.03 0.61 0.03 90 1014.2
20260505032018 10 0.0 1.6 0.03 0.64 0.03 89 1014.2
20260505031017 10 0.0 1.6 0.03 0.66 0.03 89 1014.2
20260505030038 10 0.0 3.2 0.00 0.69 0.00 89 1014.1
20260505025017 10 0.0 1.6 0.00 0.71 0.00 89 1014.2
20260505024017 10 0.0 1.6 0.00 0.79 0.00 89 1014.2
20260505023018 10 0.0 0.0 0.00 0.89 0.00 89 1014.2
20260505022017 10 0.0 1.6 0.00 0.97 0.00 89 1014.3
20260505021017 10 0.0 1.6 0.00 1.07 0.00 88 1014.1
20260505020017 10 0.0 1.6 0.00 1.12 0.00 88 1014.2
20260505015017 10 0.0 1.6 0.00 1.22 0.00 88 1014.2
20260505014017 10 0 1.6 3.2 0.00 1.32 0.00 88 1014.3
20260505013017 10 0.0 1.6 0.00 1.45 0.00 88 1014.3
20260505012017 10 0.0 1.6 0.00 1.60 0.00 88 1014.3
20260505011017 10 0.0 1.6 0.00 1.75 0.00 88 1014.4
20260505010037 11 0 1.6 3.2 0.00 2.11 0.00 88 1014.5
20260505004017 11 0.0 3.2 0.00 2.97 0.00 88 1014.7
20260505003017 11 0 1.6 3.2 0.00 3.17 0.00 88 1014.7
20260505002017 11 0.0 1.6 0.00 3.35 0.00 88 1014.8
20260505001057 11 0.0 3.2 0.00 3.51 0.00 88 1014.8
20260505000017 11 0.0 1.6 0.00 3.58 0.00 88 1014.8
20260504235017 11 0 1.6 3.2 0.00 3.71 0.00 88 1014.8
20260504234018 11 0 1.6 3.2 0.00 3.84 0.00 88 1014.8
20260504233017 11 0.0 3.2 0.00 3.99 0.00 88 1014.7
20260504232017 11 0.0 3.2 0.00 4.09 0.00 88 1014.8
20260504231037 11 0 3.2 6.4 0.00 4.17 0.00 88 1014.6
20260504230017 11 0 1.6 4.8 0.00 4.22 0.00 88 1014.8